STARLINK-5100, 55495

Orbit data source: Space-Track

STARLINK-5100, 55495 is a payload satellite owned by SpaceX/Seattle (US) in LEO that was launched on Thu, 02 Feb 2023 UTC via an FALCON 9 launch vehicle from the Air Force Eastern Test Range (AFETR). Payload-class satellites include a variety of spacecraft equipped with specific instruments for various scientific and technological missions. These include communications satellites like Starlink; space stations such as the ISS; scientific satellites like the Hubble; Earth observation satellites from companies like Planet Labs, Umbra, and HawkEye 360; GPS; miniature CubeSats for education and research; and military/defense satellites.

Loading next visibility...
Identifier
55495, 2023-015AY
Orbit
LEO
Country
Flag of USUS
Related business
Manufacturer
SpaceX/Seattle
Mission
Operational Commercial Communications
Bus & Motor
STARLINK, Unknown motor
Mass
305 kg wet, ~290 kg dry
Launch date (UTC)
2023-02-02 (3 years ago)
Launch vehicle
FALCON 9
Launch site
Air Force Eastern Test Range (AFETR)
Object type
Payload
Rocket body
Debris
Shape & HBR
Box + 1 Pan, 10.1 m
Radar Cross Section
13.562 m², Large (>1 m²)

Expand to show TLE details & history
Last TLE update: 13 hours ago

TLE from 13 hours ago
0 STARLINK-5100
1 55495U 23015AY  25288.60227032  .00000636  00000-0  62178-4 0  9999
2 55495  43.0050  21.8100 0001352 265.9603  94.1084 15.02534988149078
Epoch: 2025-10-15T14:27Z
TLE epoch observation values (Epoch: 2025-10-15T14:27:16.155Z)
Latitude
-0.00008°
Longitude
140.61861°
Altitude
558.928 km
Speed
7.584 km/s
True Right ascension
01h 27m 14s
True Declination
0° 00' 00"
Sunlit
Object was in full shadow at epoch
Visualization orbit readout
Latitude
Unknown
Longitude
Unknown
Altitude
Unknown
Speed
Unknown
Apparent Right ascension
Unknown
Apparent Declination
Unknown
Sunlit
N/A
Visualization observer readout
Local Sidereal Time
21:58:55
Azimuth
Unknown
Elevation
Unknown
Doppler factor
Unknown
Orbital elements
Apogee altitude
561.944 km
Perigee altitude
560.068 km
Semi-major axis
6,939.143 km
Eccentricity
0.00014
Inclination
43.005°
RAAN
21.81°
Arg. of periapsis
265.9603°
True anomaly
94.12385°
Mean anomaly
94.1084°
Eccentric anomaly
94.11613°
Mean motion
3.75478 °/min
Orbital period
95.88 mins
BSTAR
0.000062178
Loading maneuver chart data...
Computing Atmospheric mass density...
Loading historical data...
Loading historical data...
Loading historical data...
Loading historical data...
Loading historical data...
Loading historical data...
Loading historical data...

Documentation

Showing up to 5 results
|